When you browse on this site, cookies collect data to enhance your experience and personalize the content and advertising you see.
Visit our Privacy Policy to learn more. By continuing to use the site, you agree to this use of cookies and data.
  • In Portugal
  • List of Countries
  • For 7 days
  • Water Temperature
  • Weather Map
  • Weather Widgets
  • user-avatar
    Login

    Hourly Weather Lugo

    Today, 24 August, Saturday

    Time Temperature Precipitation Wind Pressure Humidity
    00:00 +17°C° 0 mm 0 mps 723 mmHg 64%
    01:00 +17°C° 0 mm 0 mps 723 mmHg 64%
    02:00 +16°C° 0 mm 0 mps 723 mmHg 65%
    03:00 +16°C° 0 mm 0 mps 723 mmHg 65%
    04:00 +16°C° 0 mm 0 mps 723 mmHg 66%
    05:00 +15°C° 0 mm 0 mps 723 mmHg 67%
    06:00 +19°C° 0 mm 0 mps 724 mmHg 58%
    07:00 +22°C° 0 mm 0 mps 724 mmHg 49%
    08:00 +25°C° 0 mm 0 mps 725 mmHg 40%
    09:00 +29°C° 0 mm 1 mps 725 mmHg 35%
    10:00 +30°C° 0 mm 1 mps 725 mmHg 31%
    11:00 +32°C° 0 mm 2 mps 725 mmHg 27%
    12:00 +32°C° 0 mm 2 mps 725 mmHg 26%
    13:00 +32°C° 0 mm 2 mps 724 mmHg 26%
    14:00 +33°C° 0 mm 3 mps 724 mmHg 26%
    15:00 +30°C° 0 mm 2 mps 724 mmHg 34%
    16:00 +28°C° 0 mm 2 mps 724 mmHg 43%
    17:00 +25°C° 0 mm 2 mps 723 mmHg 52%
    18:00 +23°C° 0 mm 2 mps 723 mmHg 64%
    19:00 +20°C° 0 mm 1 mps 724 mmHg 77%
    20:00 +18°C° 0 mm 1 mps 724 mmHg 89%
    21:00 +16°C° 0 mm 1 mps 723 mmHg 91%
    22:00 +15°C° 0 mm 1 mps 723 mmHg 94%
    23:00 +15°C° 0 mm 1 mps 723 mmHg 96%

    Tomorrow, 25 August, Sunday

    Time Temperature Precipitation Wind Pressure Humidity
    00:00 +15°C° 0.1 mm 1 mps 723 mmHg 96%
    01:00 +14°C° 0.1 mm 1 mps 722 mmHg 96%
    02:00 +14°C° 0.1 mm 1 mps 722 mmHg 96%
    03:00 +14°C° 0.2 mm 1 mps 722 mmHg 97%
    04:00 +14°C° 0.2 mm 1 mps 722 mmHg 97%
    05:00 +14°C° 0.2 mm 1 mps 722 mmHg 97%
    06:00 +16°C° 0.1 mm 1 mps 722 mmHg 93%
    07:00 +18°C° 0.1 mm 1 mps 722 mmHg 90%
    08:00 +19°C° 0.1 mm 1 mps 722 mmHg 86%
    09:00 +21°C° 0 mm 1 mps 722 mmHg 78%
    10:00 +23°C° 0 mm 1 mps 722 mmHg 69%
    11:00 +25°C° 0 mm 2 mps 722 mmHg 60%
    12:00 +25°C° 0 mm 2 mps 722 mmHg 60%
    13:00 +25°C° 0 mm 2 mps 722 mmHg 60%
    14:00 +25°C° 0 mm 2 mps 722 mmHg 60%
    15:00 +24°C° 0.1 mm 2 mps 722 mmHg 64%
    16:00 +23°C° 0.1 mm 2 mps 721 mmHg 69%
    17:00 +21°C° 0.1 mm 2 mps 721 mmHg 73%
    18:00 +20°C° 0 mm 2 mps 722 mmHg 78%
    19:00 +19°C° 0 mm 2 mps 722 mmHg 84%
    20:00 +18°C° 0 mm 2 mps 722 mmHg 89%
    21:00 +17°C° 0 mm 2 mps 722 mmHg 91%
    22:00 +18°C° 0 mm 1 mps 721 mmHg 93%
    23:00 +16°C° 0 mm 1 mps 721 mmHg 95%

    Day after tomorrow, 26 August, Monday

    Time Temperature Precipitation Wind Pressure Humidity
    00:00 +16°C° 0 mm 1 mps 721 mmHg 95%
    01:00 +16°C° 0 mm 1 mps 720 mmHg 96%
    02:00 +16°C° 0 mm 1 mps 720 mmHg 96%
    03:00 +16°C° 0 mm 1 mps 720 mmHg 96%
    04:00 +16°C° 0 mm 1 mps 720 mmHg 96%
    05:00 +18°C° 0 mm 1 mps 720 mmHg 95%
    06:00 +19°C° 0 mm 1 mps 721 mmHg 87%
    07:00 +21°C° 0 mm 1 mps 721 mmHg 79%
    08:00 +23°C° 0 mm 1 mps 721 mmHg 71%
    09:00 +24°C° 0.1 mm 1 mps 721 mmHg 65%
    10:00 +26°C° 0.1 mm 1 mps 721 mmHg 60%
    11:00 +27°C° 0.1 mm 1 mps 721 mmHg 55%
    12:00 +28°C° 0 mm 1 mps 721 mmHg 52%
    13:00 +28°C° 0 mm 2 mps 721 mmHg 48%
    14:00 +29°C° 0 mm 2 mps 721 mmHg 44%
    15:00 +27°C° 0.5 mm 2 mps 721 mmHg 54%
    16:00 +25°C° 0.5 mm 2 mps 721 mmHg 64%
    17:00 +24°C° 0.5 mm 2 mps 721 mmHg 74%
    18:00 +21°C° 0.3 mm 2 mps 721 mmHg 81%
    19:00 +19°C° 0.3 mm 2 mps 721 mmHg 88%
    20:00 +18°C° 0.3 mm 1 mps 722 mmHg 96%
    21:00 +18°C° 0 mm 1 mps 722 mmHg 96%
    22:00 +18°C° 0 mm 1 mps 722 mmHg 97%
    23:00 +18°C° 0 mm 1 mps 721 mmHg 97%

    27 August, Tuesday

    Time Temperature Precipitation Wind Pressure Humidity
    00:00 +18°C° 0 mm 1 mps 721 mmHg 96%
    01:00 +18°C° 0 mm 1 mps 721 mmHg 96%
    02:00 +18°C° 0 mm 1 mps 721 mmHg 95%
    03:00 +18°C° 0 mm 1 mps 721 mmHg 95%
    04:00 +18°C° 0 mm 1 mps 722 mmHg 94%
    05:00 +18°C° 0 mm 1 mps 722 mmHg 94%
    06:00 +19°C° 0 mm 1 mps 722 mmHg 87%
    07:00 +21°C° 0 mm 1 mps 722 mmHg 80%
    08:00 +22°C° 0 mm 1 mps 723 mmHg 73%
    09:00 +25°C° 0 mm 1 mps 723 mmHg 64%
    10:00 +27°C° 0 mm 1 mps 723 mmHg 54%
    11:00 +30°C° 0 mm 1 mps 724 mmHg 45%
    12:00 +30°C° 0 mm 1 mps 723 mmHg 44%
    13:00 +30°C° 0 mm 2 mps 723 mmHg 43%
    14:00 +30°C° 0 mm 2 mps 723 mmHg 43%
    15:00 +28°C° 0 mm 2 mps 723 mmHg 50%
    16:00 +26°C° 0 mm 2 mps 723 mmHg 58%
    17:00 +24°C° 0 mm 2 mps 722 mmHg 65%
    18:00 +21°C° 0 mm 2 mps 722 mmHg 75%
    19:00 +20°C° 0 mm 1 mps 723 mmHg 86%
    20:00 +16°C° 0 mm 1 mps 723 mmHg 96%
    21:00 +16°C° 0 mm 1 mps 723 mmHg 97%
    22:00 +16°C° 0 mm 1 mps 723 mmHg 97%
    23:00 +15°C° 0 mm 0 mps 722 mmHg 98%

    28 August, Wednesday

    Time Temperature Precipitation Wind Pressure Humidity
    00:00 +15°C° 0 mm 0 mps 722 mmHg 97%
    01:00 +14°C° 0 mm 0 mps 722 mmHg 97%
    02:00 +14°C° 0 mm 0 mps 722 mmHg 97%
    03:00 +14°C° 0 mm 0 mps 722 mmHg 97%
    04:00 +14°C° 0 mm 0 mps 722 mmHg 97%
    05:00 +14°C° 0 mm 0 mps 722 mmHg 97%
    06:00 +17°C° 0 mm 0 mps 723 mmHg 86%
    07:00 +20°C° 0 mm 0 mps 723 mmHg 75%
    08:00 +22°C° 0 mm 0 mps 723 mmHg 65%
    09:00 +24°C° 0 mm 0 mps 724 mmHg 57%
    10:00 +28°C° 0 mm 1 mps 724 mmHg 50%
    11:00 +31°C° 0 mm 1 mps 724 mmHg 42%
    12:00 +31°C° 0 mm 1 mps 724 mmHg 42%
    13:00 +30°C° 0 mm 2 mps 723 mmHg 41%
    14:00 +30°C° 0 mm 2 mps 723 mmHg 41%
    15:00 +28°C° 0 mm 2 mps 723 mmHg 50%
    16:00 +26°C° 0 mm 2 mps 723 mmHg 58%
    17:00 +24°C° 0 mm 2 mps 723 mmHg 67%
    18:00 +21°C° 0 mm 2 mps 723 mmHg 77%
    19:00 +20°C° 0 mm 1 mps 723 mmHg 87%
    20:00 +18°C° 0 mm 1 mps 723 mmHg 97%
    21:00 +18°C° 0 mm 1 mps 723 mmHg 97%
    22:00 +18°C° 0 mm 1 mps 723 mmHg 96%
    23:00 +18°C° 0 mm 1 mps 723 mmHg 96%

    29 August, Thursday

    Time Temperature Precipitation Wind Pressure Humidity
    00:00 +18°C° 0 mm 1 mps 723 mmHg 95%
    01:00 +18°C° 0 mm 1 mps 723 mmHg 94%
    02:00 +18°C° 0 mm 1 mps 723 mmHg 93%
    03:00 +18°C° 0 mm 1 mps 723 mmHg 92%
    04:00 +18°C° 0 mm 1 mps 723 mmHg 92%
    05:00 +18°C° 0 mm 1 mps 723 mmHg 91%
    06:00 +19°C° 0 mm 1 mps 723 mmHg 87%
    07:00 +19°C° 0 mm 1 mps 723 mmHg 84%
    08:00 +20°C° 0 mm 1 mps 724 mmHg 80%
    09:00 +21°C° 0 mm 1 mps 724 mmHg 76%
    10:00 +21°C° 0 mm 2 mps 724 mmHg 71%
    11:00 +23°C° 0 mm 2 mps 724 mmHg 66%
    12:00 +23°C° 0 mm 2 mps 723 mmHg 64%
    13:00 +24°C° 0 mm 3 mps 723 mmHg 63%
    14:00 +24°C° 0 mm 3 mps 723 mmHg 62%
    15:00 +22°C° 0 mm 3 mps 723 mmHg 66%
    16:00 +21°C° 0 mm 3 mps 723 mmHg 71%
    17:00 +20°C° 0 mm 3 mps 723 mmHg 75%
    18:00 +18°C° 0 mm 2 mps 723 mmHg 82%
    19:00 +17°C° 0 mm 2 mps 723 mmHg 89%
    20:00 +15°C° 0 mm 2 mps 724 mmHg 96%
    21:00 +15°C° 0 mm 2 mps 724 mmHg 94%
    22:00 +16°C° 0 mm 2 mps 724 mmHg 92%
    23:00 +16°C° 0 mm 2 mps 724 mmHg 89%
    Show more